TAP07D GMMN-LPPT

Flight info

Callsign TAP07D
Flight time 1h 8m
Altitude 34000
Route LAKAM UR722 AMSEL DCT VATZI
Aircraft A320/M-SDE3FGHIRWY/LB1

Departure

Time 2026-05-07 17:08
Airport Mohammed V International Airport (GMMN)

Arrival

Time 2026-05-07 18:16
Airport Lisbon Humberto Delgado Airport (LPPT)
Time Latitude Longitude Altitude Speed Heading
2026-05-07 16:29 33.37316 -7.58231 655 ft 0 kts 68°
2026-05-07 16:48 33.37315 -7.58232 653 ft 3 kts 66°
2026-05-07 16:48 33.37307 -7.58255 654 ft 4 kts 68°
2026-05-07 16:48 33.37297 -7.58286 655 ft 4 kts 72°
2026-05-07 16:48 33.37290 -7.58317 653 ft 4 kts 81°
2026-05-07 16:49 33.37289 -7.58346 654 ft 2 kts 96°
2026-05-07 16:49 33.37289 -7.58352 655 ft 0 kts 96°
2026-05-07 16:51 33.37274 -7.58331 655 ft 11 kts 153°
2026-05-07 16:51 33.37141 -7.58284 653 ft 26 kts 164°
2026-05-07 16:51 33.36993 -7.58234 653 ft 11 kts 165°
2026-05-07 16:52 33.36952 -7.58242 653 ft 8 kts 235°
2026-05-07 16:52 33.36922 -7.58331 655 ft 23 kts 257°
2026-05-07 16:52 33.36861 -7.58462 653 ft 5 kts 176°
2026-05-07 16:52 33.36757 -7.58431 654 ft 41 kts 165°
2026-05-07 16:53 33.36438 -7.58322 653 ft 45 kts 163°
2026-05-07 16:53 33.36338 -7.58287 652 ft 0 kts 163°
2026-05-07 16:53 33.36324 -7.58283 652 ft 0 kts 165°
2026-05-07 16:53 33.36324 -7.58282 652 ft 0 kts 165°
2026-05-07 16:54 33.36315 -7.58280 652 ft 2 kts 165°
2026-05-07 16:54 33.36312 -7.58278 652 ft 0 kts 165°
2026-05-07 16:55 33.36306 -7.58277 652 ft 5 kts 165°
2026-05-07 16:56 33.36279 -7.58268 653 ft 5 kts 165°
2026-05-07 16:56 33.36155 -7.58225 652 ft 14 kts 163°
2026-05-07 16:56 33.35990 -7.58170 652 ft 11 kts 165°
2026-05-07 16:57 33.35917 -7.58145 652 ft 14 kts 163°
2026-05-07 16:57 33.35819 -7.58111 654 ft 14 kts 163°
2026-05-07 16:57 33.35728 -7.58079 652 ft 13 kts 164°
2026-05-07 16:57 33.35645 -7.58050 652 ft 10 kts 164°
2026-05-07 16:58 33.35598 -7.58034 652 ft 9 kts 164°
2026-05-07 16:58 33.35526 -7.58010 652 ft 15 kts 165°
2026-05-07 16:58 33.35467 -7.57990 652 ft 7 kts 164°
2026-05-07 16:58 33.35391 -7.57965 653 ft 15 kts 164°
2026-05-07 16:59 33.35311 -7.57949 653 ft 9 kts 191°
2026-05-07 16:59 33.35264 -7.57987 653 ft 8 kts 240°
2026-05-07 16:59 33.35248 -7.58035 653 ft 0 kts 251°
2026-05-07 17:01 33.35245 -7.58043 653 ft 6 kts 251°
2026-05-07 17:01 33.35236 -7.58079 653 ft 11 kts 254°
2026-05-07 17:02 33.35235 -7.58084 653 ft 0 kts 254°
2026-05-07 17:05 33.35221 -7.58144 654 ft 16 kts 255°
2026-05-07 17:05 33.35209 -7.58234 654 ft 7 kts 299°
2026-05-07 17:05 33.35251 -7.58274 654 ft 9 kts 345°
2026-05-07 17:06 33.35263 -7.58277 654 ft 0 kts 346°
2026-05-07 17:07 33.35266 -7.58278 654 ft 3 kts 346°
2026-05-07 17:07 33.35459 -7.58343 648 ft 66 kts 343°
2026-05-07 17:07 33.36114 -7.58570 647 ft 127 kts 344°
2026-05-07 17:08 33.37074 -7.58895 1012 ft 143 kts 347°
2026-05-07 17:08 33.38046 -7.59216 1764 ft 146 kts 347°
2026-05-07 17:08 33.39063 -7.59557 2296 ft 162 kts 343°
2026-05-07 17:08 33.40185 -7.60089 2642 ft 185 kts 337°
2026-05-07 17:09 33.41388 -7.60883 2954 ft 212 kts 329°
2026-05-07 17:09 33.42620 -7.61988 3597 ft 228 kts 320°
2026-05-07 17:09 33.43765 -7.63358 4432 ft 238 kts 310°
2026-05-07 17:09 33.44785 -7.64990 4840 ft 249 kts 302°
2026-05-07 17:10 33.45737 -7.66713 4917 ft 246 kts 302°
2026-05-07 17:10 33.46712 -7.68409 5062 ft 257 kts 309°
2026-05-07 17:10 33.48203 -7.69695 5763 ft 274 kts 338°
2026-05-07 17:10 33.50109 -7.70090 6635 ft 283 kts 355°
2026-05-07 17:11 33.52105 -7.70222 7492 ft 289 kts 356°
2026-05-07 17:11 33.54139 -7.70326 8365 ft 296 kts 356°
2026-05-07 17:11 33.56217 -7.70424 9237 ft 302 kts 355°
2026-05-07 17:11 33.58338 -7.70525 10060 ft 309 kts 355°
2026-05-07 17:12 33.60537 -7.70637 10443 ft 331 kts 355°
2026-05-07 17:12 33.62892 -7.70765 10781 ft 352 kts 355°
2026-05-07 17:12 33.65377 -7.70900 11431 ft 361 kts 355°
2026-05-07 17:12 33.67909 -7.71036 12197 ft 367 kts 354°
2026-05-07 17:13 33.70476 -7.71177 12974 ft 371 kts 354°
2026-05-07 17:13 33.73080 -7.71320 13763 ft 376 kts 354°
2026-05-07 17:13 33.75700 -7.71465 14441 ft 379 kts 354°
2026-05-07 17:13 33.78351 -7.71614 15129 ft 383 kts 354°
2026-05-07 17:14 33.81026 -7.71762 15822 ft 386 kts 353°
2026-05-07 17:14 33.83721 -7.71911 16526 ft 389 kts 353°
2026-05-07 17:14 33.86445 -7.72063 17207 ft 393 kts 353°
2026-05-07 17:14 33.89188 -7.72215 17888 ft 396 kts 353°
2026-05-07 17:15 33.91955 -7.72362 18509 ft 400 kts 352°
2026-05-07 17:15 33.94743 -7.72510 19075 ft 403 kts 352°
2026-05-07 17:15 33.97562 -7.72663 19651 ft 407 kts 352°
2026-05-07 17:15 34.00404 -7.72821 20198 ft 411 kts 352°
2026-05-07 17:16 34.03267 -7.72981 20737 ft 414 kts 352°
2026-05-07 17:16 34.06163 -7.73145 21266 ft 418 kts 352°
2026-05-07 17:16 34.09080 -7.73308 21793 ft 421 kts 352°
2026-05-07 17:16 34.12024 -7.73471 22315 ft 425 kts 352°
2026-05-07 17:17 34.14989 -7.73636 22830 ft 428 kts 352°
2026-05-07 17:17 34.17946 -7.73799 23328 ft 432 kts 351°
2026-05-07 17:17 34.20959 -7.73970 23776 ft 435 kts 351°
2026-05-07 17:17 34.23990 -7.74169 24220 ft 437 kts 351°
2026-05-07 17:18 34.27036 -7.74389 24649 ft 440 kts 351°
2026-05-07 17:18 34.30099 -7.74613 25071 ft 442 kts 351°
2026-05-07 17:18 34.33171 -7.74836 25492 ft 444 kts 351°
2026-05-07 17:18 34.36269 -7.75056 25901 ft 447 kts 351°
2026-05-07 17:19 34.39381 -7.75275 26308 ft 449 kts 351°
2026-05-07 17:19 34.42511 -7.75492 26714 ft 451 kts 351°
2026-05-07 17:19 34.45663 -7.75709 27109 ft 454 kts 351°
2026-05-07 17:19 34.48831 -7.75928 27511 ft 456 kts 351°
2026-05-07 17:20 34.52008 -7.76149 27926 ft 458 kts 351°
2026-05-07 17:20 34.55202 -7.76371 28312 ft 461 kts 351°
2026-05-07 17:20 34.58411 -7.76596 28701 ft 463 kts 351°
2026-05-07 17:20 34.61637 -7.76821 29073 ft 465 kts 351°
2026-05-07 17:21 34.64878 -7.77045 29428 ft 468 kts 350°
2026-05-07 17:21 34.68141 -7.77271 29776 ft 470 kts 350°
2026-05-07 17:21 34.71376 -7.77498 30097 ft 472 kts 350°
2026-05-07 17:21 34.74667 -7.77730 30411 ft 474 kts 350°
2026-05-07 17:22 34.77953 -7.77975 30725 ft 474 kts 350°
2026-05-07 17:22 34.81251 -7.78244 31015 ft 476 kts 349°
2026-05-07 17:22 34.84557 -7.78530 31335 ft 476 kts 349°
2026-05-07 17:22 34.87856 -7.78820 31738 ft 474 kts 349°
2026-05-07 17:23 34.91143 -7.79108 32154 ft 473 kts 349°
2026-05-07 17:23 34.94423 -7.79392 32564 ft 472 kts 349°
2026-05-07 17:23 34.97692 -7.79668 32965 ft 470 kts 349°
2026-05-07 17:23 35.00958 -7.79940 33390 ft 469 kts 349°
2026-05-07 17:24 35.04212 -7.80208 33773 ft 468 kts 349°
2026-05-07 17:24 35.07470 -7.80476 33937 ft 467 kts 349°
2026-05-07 17:24 35.13902 -7.81003 33949 ft 460 kts 348°
2026-05-07 17:25 35.20273 -7.81537 33955 ft 459 kts 348°
2026-05-07 17:25 35.26600 -7.82081 33960 ft 459 kts 348°
2026-05-07 17:26 35.32991 -7.82631 33958 ft 460 kts 348°
2026-05-07 17:26 35.39378 -7.83172 33959 ft 460 kts 348°
2026-05-07 17:27 35.45769 -7.83709 33960 ft 460 kts 348°
2026-05-07 17:27 35.52152 -7.84286 33974 ft 460 kts 347°
2026-05-07 17:28 35.58523 -7.84968 33962 ft 453 kts 341°
2026-05-07 17:28 35.61486 -7.86067 33957 ft 440 kts 330°
2026-05-07 17:28 35.64334 -7.87450 33953 ft 440 kts 330°
2026-05-07 17:29 35.70013 -7.90249 33946 ft 440 kts 329°
2026-05-07 17:29 35.75681 -7.93068 33946 ft 440 kts 329°
2026-05-07 17:30 35.81330 -7.95879 33946 ft 440 kts 329°
2026-05-07 17:30 35.87019 -7.98697 33947 ft 441 kts 330°
2026-05-07 17:31 35.92721 -8.01509 33946 ft 441 kts 330°
2026-05-07 17:31 35.98420 -8.04329 33958 ft 441 kts 329°
2026-05-07 17:32 36.04113 -8.07157 33947 ft 441 kts 329°
2026-05-07 17:32 36.08847 -8.09518 33939 ft 441 kts 329°
2026-05-07 17:33 36.15459 -8.12822 33936 ft 441 kts 329°
2026-05-07 17:33 36.21174 -8.15675 33933 ft 441 kts 329°
2026-05-07 17:34 36.26873 -8.18525 33951 ft 441 kts 329°
2026-05-07 17:34 36.32566 -8.21372 33945 ft 442 kts 329°
2026-05-07 17:35 36.38251 -8.24173 33943 ft 433 kts 334°
2026-05-07 17:35 36.41230 -8.24829 33951 ft 439 kts 348°
2026-05-07 17:35 36.44245 -8.25025 33947 ft 439 kts 349°
2026-05-07 17:36 36.50334 -8.25333 33941 ft 437 kts 349°
2026-05-07 17:36 36.56404 -8.25630 33941 ft 437 kts 349°
2026-05-07 17:37 36.62479 -8.25926 33941 ft 437 kts 349°
2026-05-07 17:37 36.68555 -8.26222 33935 ft 437 kts 349°
2026-05-07 17:38 36.73605 -8.26471 33952 ft 437 kts 349°
2026-05-07 17:38 36.79674 -8.26774 33944 ft 436 kts 349°
2026-05-07 17:39 36.85755 -8.27078 33938 ft 436 kts 349°
2026-05-07 17:39 36.91803 -8.27518 33933 ft 426 kts 339°
2026-05-07 17:40 36.94536 -8.28673 33679 ft 405 kts 322°
2026-05-07 17:40 36.96744 -8.30699 33019 ft 386 kts 305°
2026-05-07 17:40 36.98217 -8.33409 32294 ft 371 kts 285°
2026-05-07 17:40 36.98988 -8.36463 31930 ft 371 kts 279°
2026-05-07 17:41 36.99649 -8.39560 31551 ft 366 kts 279°
2026-05-07 17:41 37.00293 -8.42623 31180 ft 363 kts 279°
2026-05-07 17:41 37.00922 -8.45641 30815 ft 362 kts 279°
2026-05-07 17:41 37.01551 -8.48684 30456 ft 361 kts 280°
2026-05-07 17:42 37.02481 -8.51618 30173 ft 369 kts 295°
2026-05-07 17:42 37.04163 -8.54102 29920 ft 383 kts 314°
2026-05-07 17:42 37.06499 -8.55828 29631 ft 395 kts 328°
2026-05-07 17:42 37.08997 -8.57260 29376 ft 395 kts 329°
2026-05-07 17:43 37.11507 -8.58678 29096 ft 394 kts 329°
2026-05-07 17:43 37.14005 -8.60085 28821 ft 393 kts 329°
2026-05-07 17:43 37.16490 -8.61487 28570 ft 391 kts 329°
2026-05-07 17:43 37.18971 -8.62888 28303 ft 390 kts 329°
2026-05-07 17:44 37.21440 -8.64290 28043 ft 389 kts 329°
2026-05-07 17:44 37.23896 -8.65689 27781 ft 387 kts 329°
2026-05-07 17:44 37.26346 -8.67087 27521 ft 386 kts 329°
2026-05-07 17:44 37.28784 -8.68484 27264 ft 384 kts 329°
2026-05-07 17:45 37.31211 -8.69877 27010 ft 383 kts 329°
2026-05-07 17:45 37.33630 -8.71265 26756 ft 381 kts 329°
2026-05-07 17:45 37.36045 -8.72647 26515 ft 382 kts 329°
2026-05-07 17:45 37.38431 -8.74016 26264 ft 382 kts 329°
2026-05-07 17:46 37.40878 -8.75422 26027 ft 381 kts 329°
2026-05-07 17:46 37.43253 -8.76787 25804 ft 380 kts 330°
2026-05-07 17:46 37.45665 -8.78172 25556 ft 379 kts 330°
2026-05-07 17:46 37.48058 -8.79547 25318 ft 378 kts 330°
2026-05-07 17:47 37.50446 -8.80919 25079 ft 377 kts 330°
2026-05-07 17:47 37.52827 -8.82289 24844 ft 376 kts 330°
2026-05-07 17:47 37.55200 -8.83659 24608 ft 375 kts 330°
2026-05-07 17:47 37.57567 -8.85027 24373 ft 374 kts 330°
2026-05-07 17:48 37.59946 -8.86348 24142 ft 375 kts 334°
2026-05-07 17:48 37.62428 -8.87388 23934 ft 376 kts 337°
2026-05-07 17:48 37.64916 -8.88395 23698 ft 375 kts 337°
2026-05-07 17:48 37.67374 -8.89391 23182 ft 376 kts 337°
2026-05-07 17:49 37.69868 -8.90404 22596 ft 377 kts 337°
2026-05-07 17:49 37.72385 -8.91425 22235 ft 371 kts 337°
2026-05-07 17:49 37.74824 -8.92414 21887 ft 366 kts 337°
2026-05-07 17:49 37.77229 -8.93392 21404 ft 361 kts 337°
2026-05-07 17:50 37.79606 -8.94360 20700 ft 357 kts 337°
2026-05-07 17:50 37.81960 -8.95319 19998 ft 354 kts 337°
2026-05-07 17:50 37.84290 -8.96273 19342 ft 352 kts 338°
2026-05-07 17:50 37.86616 -8.97224 18814 ft 349 kts 338°
2026-05-07 17:51 37.88922 -8.98165 18290 ft 347 kts 339°
2026-05-07 17:51 37.91182 -8.99089 17717 ft 344 kts 339°
2026-05-07 17:51 37.93497 -9.00037 17201 ft 346 kts 339°
2026-05-07 17:51 37.95766 -9.00965 17072 ft 340 kts 339°
2026-05-07 17:52 37.98019 -9.01887 16988 ft 340 kts 339°
2026-05-07 17:52 38.00245 -9.02800 16844 ft 340 kts 339°
2026-05-07 17:52 38.02496 -9.03734 16202 ft 340 kts 339°
2026-05-07 17:52 38.04750 -9.04686 15596 ft 335 kts 339°
2026-05-07 17:53 38.06920 -9.05606 15026 ft 330 kts 339°
2026-05-07 17:53 38.09088 -9.06530 14461 ft 327 kts 339°
2026-05-07 17:53 38.11233 -9.07442 13904 ft 324 kts 339°
2026-05-07 17:53 38.13363 -9.08344 13399 ft 319 kts 340°
2026-05-07 17:54 38.15536 -9.08911 13321 ft 322 kts 357°
2026-05-07 17:54 38.17752 -9.08558 13228 ft 323 kts 18°
2026-05-07 17:54 38.19758 -9.07311 12749 ft 320 kts 39°
2026-05-07 17:54 38.21312 -9.05343 12306 ft 315 kts 51°
2026-05-07 17:55 38.22741 -9.03236 11828 ft 314 kts 51°
2026-05-07 17:55 38.24166 -9.01152 11439 ft 306 kts 51°
2026-05-07 17:55 38.25519 -8.99171 11301 ft 286 kts 51°
2026-05-07 17:55 38.26798 -8.97298 10984 ft 275 kts 51°
2026-05-07 17:56 38.28040 -8.95476 10541 ft 271 kts 51°
2026-05-07 17:56 38.29270 -8.93669 10064 ft 270 kts 52°
2026-05-07 17:56 38.30488 -8.91887 9767 ft 269 kts 51°
2026-05-07 17:56 38.31738 -8.90046 9262 ft 275 kts 52°
2026-05-07 17:57 38.32994 -8.88214 8728 ft 272 kts 51°
2026-05-07 17:57 38.33819 -8.87021 8385 ft 269 kts 51°
2026-05-07 17:57 38.35436 -8.84680 7711 ft 263 kts 51°
2026-05-07 17:57 38.36653 -8.82927 7204 ft 259 kts 51°
2026-05-07 17:58 38.37817 -8.81256 6958 ft 253 kts 51°
2026-05-07 17:58 38.39005 -8.79545 6933 ft 255 kts 51°
2026-05-07 17:58 38.40168 -8.77870 6930 ft 256 kts 51°
2026-05-07 17:58 38.41345 -8.76167 6931 ft 256 kts 51°
2026-05-07 17:59 38.42526 -8.74457 6931 ft 256 kts 51°
2026-05-07 17:59 38.43704 -8.72754 6932 ft 256 kts 51°
2026-05-07 17:59 38.44884 -8.71048 6924 ft 255 kts 51°
2026-05-07 17:59 38.46066 -8.69351 6928 ft 255 kts 53°
2026-05-07 18:00 38.47262 -8.67668 6942 ft 256 kts 52°
2026-05-07 18:00 38.48651 -8.66263 6935 ft 258 kts 25°
2026-05-07 18:00 38.50401 -8.65783 6929 ft 261 kts 357°
2026-05-07 18:00 38.52161 -8.66360 6933 ft 261 kts 329°
2026-05-07 18:01 38.53507 -8.67832 6934 ft 255 kts 301°
2026-05-07 18:01 38.54220 -8.69858 6925 ft 248 kts 277°
2026-05-07 18:01 38.54204 -8.72001 6937 ft 240 kts 252°
2026-05-07 18:01 38.53531 -8.73899 6929 ft 233 kts 233°
2026-05-07 18:02 38.51763 -8.77344 6928 ft 233 kts 233°
2026-05-07 18:02 38.50868 -8.79099 6930 ft 233 kts 234°
2026-05-07 18:02 38.49985 -8.80837 6934 ft 233 kts 234°
2026-05-07 18:03 38.49114 -8.82551 6934 ft 233 kts 234°
2026-05-07 18:03 38.48230 -8.84286 6933 ft 233 kts 234°
2026-05-07 18:03 38.47348 -8.86017 6934 ft 233 kts 233°
2026-05-07 18:03 38.46465 -8.87750 6933 ft 232 kts 234°
2026-05-07 18:04 38.45580 -8.89482 6933 ft 233 kts 233°
2026-05-07 18:04 38.44691 -8.91221 6934 ft 234 kts 234°
2026-05-07 18:04 38.43802 -8.92955 6934 ft 234 kts 234°
2026-05-07 18:04 38.42913 -8.94690 6942 ft 233 kts 233°
2026-05-07 18:05 38.42025 -8.96424 6939 ft 233 kts 234°
2026-05-07 18:05 38.41138 -8.98155 6939 ft 233 kts 233°
2026-05-07 18:05 38.40253 -8.99886 6941 ft 233 kts 233°
2026-05-07 18:05 38.39361 -9.01618 6942 ft 233 kts 234°
2026-05-07 18:06 38.38464 -9.03345 6945 ft 234 kts 233°
2026-05-07 18:06 38.37564 -9.05068 6945 ft 234 kts 233°
2026-05-07 18:06 38.36662 -9.06793 6943 ft 233 kts 233°
2026-05-07 18:06 38.35762 -9.08513 6945 ft 233 kts 233°
2026-05-07 18:07 38.35082 -9.10370 6944 ft 234 kts 258°
2026-05-07 18:07 38.35237 -9.12423 6885 ft 237 kts 289°
2026-05-07 18:07 38.35966 -9.14246 6535 ft 239 kts 297°
2026-05-07 18:07 38.36850 -9.16040 6192 ft 238 kts 299°
2026-05-07 18:08 38.37734 -9.17783 5846 ft 236 kts 300°
2026-05-07 18:08 38.38619 -9.19563 5503 ft 233 kts 299°
2026-05-07 18:08 38.39525 -9.21253 5214 ft 231 kts 309°
2026-05-07 18:08 38.40872 -9.22358 4920 ft 234 kts 336°
2026-05-07 18:09 38.42406 -9.23064 4568 ft 233 kts 338°
2026-05-07 18:09 38.43943 -9.23705 4244 ft 231 kts 339°
2026-05-07 18:09 38.45436 -9.24321 4041 ft 227 kts 339°
2026-05-07 18:09 38.46942 -9.24934 4032 ft 227 kts 339°
2026-05-07 18:10 38.48450 -9.25534 4034 ft 227 kts 341°
2026-05-07 18:10 38.49953 -9.26147 4034 ft 226 kts 340°
2026-05-07 18:10 38.51487 -9.26633 4030 ft 230 kts 353°
2026-05-07 18:10 38.53101 -9.26641 4038 ft 232 kts
2026-05-07 18:11 38.54677 -9.26118 4036 ft 237 kts 17°
2026-05-07 18:11 38.55683 -9.25588 4031 ft 234 kts 19°
2026-05-07 18:11 38.57570 -9.24555 4036 ft 204 kts 20°
2026-05-07 18:11 38.58851 -9.23870 4021 ft 197 kts 18°
2026-05-07 18:12 38.60110 -9.23202 3847 ft 195 kts 18°
2026-05-07 18:12 38.61356 -9.22541 3614 ft 193 kts 19°
2026-05-07 18:12 38.62592 -9.21883 3363 ft 192 kts 18°
2026-05-07 18:12 38.63815 -9.21232 3106 ft 190 kts 17°
2026-05-07 18:13 38.65048 -9.20576 2836 ft 191 kts 18°
2026-05-07 18:13 38.66205 -9.19957 2574 ft 173 kts 18°
2026-05-07 18:13 38.67265 -9.19390 2376 ft 157 kts 15°
2026-05-07 18:13 38.68229 -9.18876 2151 ft 145 kts 16°
2026-05-07 18:14 38.69137 -9.18394 1956 ft 139 kts 16°
2026-05-07 18:14 38.70018 -9.17925 1779 ft 136 kts 17°
2026-05-07 18:14 38.70890 -9.17461 1586 ft 135 kts 15°
2026-05-07 18:14 38.71759 -9.16999 1406 ft 136 kts 14°
2026-05-07 18:15 38.72636 -9.16532 1197 ft 137 kts 14°
2026-05-07 18:15 38.73509 -9.16066 1044 ft 134 kts 14°
2026-05-07 18:15 38.74349 -9.15623 829 ft 128 kts 18°
2026-05-07 18:15 38.75151 -9.15180 670 ft 131 kts 16°
2026-05-07 18:16 38.76004 -9.14731 541 ft 132 kts 16°
2026-05-07 18:16 38.76842 -9.14283 357 ft 125 kts 17°
2026-05-07 18:16 38.77514 -9.13923 366 ft 79 kts 22°
2026-05-07 18:16 38.77900 -9.13717 367 ft 43 kts 22°
2026-05-07 18:17 38.78157 -9.13576 369 ft 38 kts 25°
2026-05-07 18:17 38.78341 -9.13390 364 ft 19 kts 46°
2026-05-07 18:17 38.78370 -9.13293 364 ft 10 kts 112°
2026-05-07 18:17 38.78355 -9.13270 362 ft 9 kts 139°
2026-05-07 18:18 38.78291 -9.13280 361 ft 10 kts 202°
2026-05-07 18:18 38.78227 -9.13313 358 ft 11 kts 202°
2026-05-07 18:18 38.78158 -9.13349 362 ft 11 kts 202°
2026-05-07 18:18 38.78093 -9.13384 361 ft 10 kts 202°
2026-05-07 18:19 38.78031 -9.13412 359 ft 10 kts 189°
2026-05-07 18:19 38.77955 -9.13398 353 ft 13 kts 168°
2026-05-07 18:19 38.77857 -9.13372 348 ft 16 kts 168°